Eufaula, AL

11:02 AM CST on December 16, 2017 (GMT -0600)
Weedon

Weather History for KEUF - October, 2012

Change the Weather History Date:

Tuesday, October 16, 2012

  Actual Average (KLSF) Record (KLSF)
Temperature  
Mean Temperature 62 °F -  
Max Temperature 75 °F 75 °F 87 °F (2011)
Min Temperature 48 °F 50 °F 37 °F (2010)
Degree Days  
Heating Degree Days 4    
Growing Degree Days 12 (Base 50)    
Moisture  
Dew Point 51 °F    
Average Humidity 75    
Maximum Humidity 93    
Minimum Humidity 35    
Precipitation  
Precipitation 0.00 in - - ()
Sea Level Pressure  
Sea Level Pressure 29.93 in    
Wind  
Wind Speed 1 mph (NNE)    
Max Wind Speed 7 mph    
Max Gust Speed -    
Visibility 10 miles    
Events Rain    
Averages and records for this station are not official NWS values.
T = Trace of Precipitation, MM = Missing Value Source: NWS Daily Summary

Daily Weather History Graph

Daily Weather History Graph

Search for Another Location

Airport or City:

Trip Planner

Search our weather history database for the weather conditions in past years. The results will help you decide how hot, cold, wet, or windy it might be!

Date:

Astronomy

Oct. 16, 2012 Rise Set
Actual Time 6:44 AM CDT 6:06 PM CDT
Civil Twilight 6:20 AM CDT 6:31 PM CDT
Nautical Twilight 5:51 AM CDT 6:59 PM CDT
Astronomical Twilight 5:23 AM CDT 7:27 PM CDT
Moon 7:59 AM CDT 6:59 PM CDT
Length of Visible Light 12h 10m
Length of Day
11h 21m
New Moon, 2% of the Moon is Illuminated
Oct 16
New Moon
Oct 21
First Quarter
Oct 29
Full
Nov 6
Last Quarter
Nov 13
New

Hourly Weather History & Observations

Time (CDT) Temp. Dew Point Humidity Pressure Visibility Wind Dir Wind Speed Gust Speed Precip Events Conditions
12:58 AM 54.0 °F 51.1 °F 90% 29.95 in 10.0 mi Calm Calm - N/A   Clear
1:58 AM 55.0 °F 48.9 °F 80% 29.95 in 10.0 mi NW 3.5 mph - N/A   Clear
2:58 AM 50.0 °F 48.0 °F 93% 29.94 in 10.0 mi Calm Calm - N/A   Clear
3:58 AM 48.0 °F 46.0 °F 93% 29.95 in 10.0 mi Calm Calm - N/A   Clear
4:58 AM 50.0 °F 46.9 °F 89% 29.96 in 10.0 mi Calm Calm - N/A   Clear
5:58 AM 48.0 °F 46.0 °F 93% 29.96 in 10.0 mi Calm Calm - N/A   Clear
6:58 AM 48.0 °F 46.0 °F 93% 29.97 in 10.0 mi Calm Calm - N/A   Clear
7:58 AM 55.0 °F 48.9 °F 80% 29.98 in 10.0 mi Calm Calm - 0.00 in   Clear
8:58 AM 62.1 °F 51.1 °F 67% 29.99 in 10.0 mi Variable 3.5 mph - N/A   Clear
9:58 AM 69.1 °F 51.1 °F 53% 29.99 in 10.0 mi ENE 5.8 mph - N/A   Clear
10:58 AM 72.0 °F 48.0 °F 43% 29.99 in 10.0 mi NE 6.9 mph - 0.00 in Rain Light Rain
12:58 PM 73.9 °F 45.0 °F 35% 29.93 in 10.0 mi Variable 5.8 mph - N/A   Clear
1:58 PM 73.9 °F 46.0 °F 37% 29.91 in 10.0 mi Calm Calm - N/A   Clear
2:58 PM 75.0 °F 46.9 °F 37% 29.91 in 10.0 mi Calm Calm - N/A   Clear
3:58 PM 73.0 °F 48.0 °F 41% 29.89 in 10.0 mi Calm Calm - N/A   Clear
4:58 PM 69.1 °F 55.9 °F 63% 29.88 in 10.0 mi Calm Calm - N/A   Clear
5:58 PM 63.0 °F 59.0 °F 87% 29.88 in 10.0 mi Calm Calm - 0.00 in   Clear
6:58 PM 60.1 °F 57.0 °F 90% 29.88 in 10.0 mi Calm Calm - N/A   Clear
7:58 PM 57.9 °F 55.9 °F 93% 29.88 in 10.0 mi Calm Calm - N/A   Clear
8:58 PM 57.0 °F 55.0 °F 93% 29.89 in 10.0 mi Calm Calm - N/A   Clear
9:58 PM 55.9 °F 54.0 °F 93% 29.89 in 10.0 mi Calm Calm - N/A   Clear
10:58 PM 55.9 °F 54.0 °F 93% 29.91 in 10.0 mi Calm Calm - N/A   Clear
11:58 PM 55.9 °F 54.0 °F 93% 29.90 in 10.0 mi Calm Calm - N/A   Clear